Погода в Сан-Хосе

США     37°20′16″N   121°53′29″W
темп.,
°C
ветер,
м/с
пор.,
м/с
влажн.,
%
обл.,
%
осадки,
мм/ч
давл.,
гПа
погр.,
м
26 сентября, вс
вс2623:00+14ю11820 0.0 1016149
02:00+12ююв01886 0.0 1016153
05:00+12юв0088100 0.0 1016127
08:00+13с117982 0.0 1017173
11:00+23с11380 0.0 1016498
14:00+27с33290 0.0 10151014
17:00+24с33360 0.0 1014665
20:00+16ссз22615 0.0 1016144
27 сентября, пн
пн2723:00+13ссз12681 0.0 101794
02:00+13ссз126743 0.0 101786
05:00+13ссз12835 0.0 101766
08:00+14ссз248613 0.0 1018177
11:00+22ссз33530 0.0 1017764
14:00+25ссз44410 0.0 10161276
17:00+24сз44475 0.0 10151146
20:00+16сз238463 0.0 1017259
28 сентября, вт
вт2823:00+15сз379019 0.0 1018438
02:00+13сз397915 0.0 1018421
05:00+11сз248236 0.0 1018196
08:00+11сз367535 0.0 1019282
11:00+18с36440 0.0 1018773
14:00+22ссз45270 0.0 10151240
17:00+22ссз462695 0.0 1014990
20:00+12з22573 0.0 101584
29 сентября, ср
ср2923:00+10юз116299 0.0 101560
02:00+11ююв115913 0.0 101439
05:00+10з11582 0.0 101418
08:00+13сз11555 0.0 101534
11:00+21с2425100 0.0 1015617
14:00+25с3318100 0.0 1014914
17:00+24ссз341986 0.0 1013686
20:00+16ссз124043 0.0 101566
30 сентября, чт
чт3023:00+14зсз114363 0.0 101666
02:00+14ююв114046 0.0 101518
05:00+13юз00355 0.0 101510
08:00+15с00335 0.0 101617
11:00+25ссв21155 0.0 1016419
14:00+30с22105 0.0 1014979
17:00+29ссз32120 0.0 1013641
20:00+19сз12270 0.0 101561